QTR921 NZAA-OTHH

Flight info

Callsign QTR921
Flight time N/A
Altitude 32000
Route BATOS4Q MADEP N774 TESAT A576 PKS J141 NEWMO/N0482F340 J141 LEC T21 PD N509 DECEM/N0489F360 N509 TATOD/N0480F380 N509 ELATI N640 BASEV/N0472F400 N640 KAT R461 MDI M300 EMURU N563 SODEX/N0492F340 N563 VUXOD DCT
Aircraft A333/H-SDE3GHIJ2J3J5M1RVWXYZ/LB2D1

Departure

Time 2026-05-05 21:41
Airport Auckland International Airport (NZAA)

Arrival

Time N/A
Airport Hamad International Airport (OTHH)
Time Latitude Longitude Altitude Speed Heading
2026-05-05 20:23 -37.00725 174.79102 37 ft 0 kts 341°
2026-05-05 21:31 -37.00726 174.79102 37 ft 0 kts 341°
2026-05-05 21:31 -37.00732 174.79105 37 ft 1 kts 340°
2026-05-05 21:32 -37.00740 174.79109 37 ft 1 kts 321°
2026-05-05 21:32 -37.00751 174.79121 37 ft 2 kts 309°
2026-05-05 21:32 -37.00761 174.79146 36 ft 3 kts 285°
2026-05-05 21:32 -37.00763 174.79150 36 ft 0 kts 259°
2026-05-05 21:33 -37.00764 174.79144 36 ft 4 kts 259°
2026-05-05 21:33 -37.00800 174.79036 37 ft 23 kts 247°
2026-05-05 21:33 -37.00880 174.78763 32 ft 43 kts 250°
2026-05-05 21:33 -37.00991 174.78337 30 ft 60 kts 250°
2026-05-05 21:34 -37.01073 174.78043 31 ft 4 kts 250°
2026-05-05 21:34 -37.01105 174.77930 31 ft 23 kts 251°
2026-05-05 21:34 -37.01158 174.77730 29 ft 1 kts 240°
2026-05-05 21:34 -37.01212 174.77664 29 ft 19 kts 207°
2026-05-05 21:35 -37.01327 174.77464 29 ft 38 kts 250°
2026-05-05 21:35 -37.01422 174.77161 26 ft 22 kts 233°
2026-05-05 21:35 -37.01568 174.77098 26 ft 1 kts 152°
2026-05-05 21:35 -37.01605 174.77171 26 ft 17 kts 95°
2026-05-05 21:36 -37.01603 174.77187 26 ft 0 kts 71°
2026-05-05 21:40 -37.01596 174.77241 26 ft 29 kts 77°
2026-05-05 21:40 -37.01474 174.77669 30 ft 90 kts 71°
2026-05-05 21:40 -37.01189 174.78674 30 ft 152 kts 71°
2026-05-05 21:40 -37.00792 174.80133 40 ft 200 kts 70°
2026-05-05 21:41 -37.00289 174.81880 390 ft 219 kts 69°
2026-05-05 21:41 -36.99733 174.83566 1428 ft 208 kts 65°
2026-05-05 21:41 -36.99240 174.85194 2383 ft 211 kts 74°
2026-05-05 21:41 -36.98798 174.86995 3153 ft 227 kts 71°
2026-05-05 21:42 -36.98283 174.88928 3954 ft 243 kts 71°
2026-05-05 21:42 -36.97726 174.90984 4754 ft 260 kts 71°
2026-05-05 21:42 -36.97133 174.93153 5678 ft 271 kts 71°
2026-05-05 21:42 -36.96527 174.95364 6763 ft 273 kts 71°
2026-05-05 21:43 -36.95908 174.97563 7406 ft 273 kts 66°
2026-05-05 21:43 -36.94767 174.99474 7741 ft 282 kts 38°
2026-05-05 21:43 -36.93003 175.00514 8350 ft 282 kts 11°
2026-05-05 21:43 -36.91065 175.00455 8867 ft 284 kts 344°
2026-05-05 21:44 -36.89336 174.99307 9386 ft 287 kts 317°
2026-05-05 21:44 -36.88046 174.97386 9925 ft 288 kts 311°
2026-05-05 21:44 -36.86633 174.95618 10457 ft 291 kts 317°
2026-05-05 21:44 -36.85144 174.93918 10995 ft 293 kts 316°
2026-05-05 21:45 -36.83968 174.91867 11461 ft 296 kts 291°
2026-05-05 21:45 -36.83541 174.89299 11657 ft 311 kts 269°
2026-05-05 21:45 -36.83804 174.86562 11696 ft 330 kts 263°
2026-05-05 21:45 -36.84023 174.83640 11772 ft 349 kts 265°
2026-05-05 21:46 -36.84229 174.80527 11879 ft 366 kts 265°
2026-05-05 21:46 -36.84432 174.77356 12417 ft 368 kts 265°
2026-05-05 21:46 -36.84632 174.74190 12983 ft 370 kts 265°
2026-05-05 21:46 -36.84833 174.70982 13441 ft 375 kts 265°
2026-05-05 21:47 -36.85039 174.67703 13979 ft 377 kts 265°
2026-05-05 21:47 -36.85240 174.64470 14502 ft 379 kts 265°
2026-05-05 21:47 -36.85445 174.61174 14976 ft 383 kts 265°
2026-05-05 21:47 -36.85649 174.57869 15460 ft 385 kts 265°
2026-05-05 21:48 -36.85854 174.54533 15942 ft 388 kts 265°
2026-05-05 21:48 -36.86059 174.51183 16391 ft 391 kts 265°
2026-05-05 21:48 -36.86267 174.47765 16846 ft 393 kts 265°
2026-05-05 21:48 -36.86473 174.44369 17285 ft 396 kts 265°
2026-05-05 21:49 -36.86680 174.40935 17717 ft 398 kts 265°
2026-05-05 21:49 -36.86885 174.37521 18137 ft 401 kts 265°
2026-05-05 21:49 -36.87093 174.34044 18553 ft 403 kts 266°
2026-05-05 21:49 -36.87300 174.30545 18963 ft 406 kts 266°
2026-05-05 21:50 -36.87507 174.27051 19364 ft 408 kts 266°
2026-05-05 21:50 -36.87717 174.23479 19759 ft 411 kts 266°
2026-05-05 21:50 -36.87924 174.19955 20135 ft 413 kts 266°
2026-05-05 21:50 -36.88134 174.16359 20506 ft 415 kts 266°
2026-05-05 21:51 -36.88340 174.12797 20861 ft 417 kts 266°
2026-05-05 21:51 -36.88549 174.09164 21212 ft 420 kts 266°
2026-05-05 21:51 -36.88758 174.05527 21555 ft 422 kts 266°
2026-05-05 21:51 -36.88966 174.01871 21890 ft 424 kts 266°
2026-05-05 21:52 -36.88417 173.94569 22480 ft 428 kts 280°
2026-05-05 21:52 -36.87892 173.90906 22838 ft 429 kts 280°
2026-05-05 21:52 -36.87365 173.87234 23034 ft 435 kts 280°
2026-05-05 21:53 -36.86828 173.83495 23015 ft 445 kts 280°
2026-05-05 21:53 -36.86281 173.79692 23321 ft 446 kts 280°
2026-05-05 21:53 -36.85735 173.75906 23673 ft 446 kts 280°
2026-05-05 21:53 -36.85182 173.72082 23884 ft 450 kts 280°
2026-05-05 21:54 -36.84627 173.68249 24158 ft 452 kts 280°
2026-05-05 21:54 -36.84063 173.64365 24524 ft 451 kts 280°
2026-05-05 21:54 -36.83511 173.60570 25188 ft 443 kts 280°
2026-05-05 21:54 -36.82968 173.56848 25650 ft 440 kts 280°
2026-05-05 21:55 -36.82418 173.53090 25956 ft 441 kts 280°
2026-05-05 21:55 -36.81866 173.49319 26336 ft 440 kts 280°
2026-05-05 21:55 -36.81316 173.45575 26739 ft 439 kts 280°
2026-05-05 21:55 -36.80770 173.41870 27089 ft 438 kts 280°
2026-05-05 21:56 -36.80223 173.38161 27437 ft 438 kts 280°
2026-05-05 21:56 -36.79673 173.34405 27802 ft 437 kts 280°
2026-05-05 21:56 -36.79133 173.30725 28165 ft 436 kts 280°
2026-05-05 21:56 -36.78585 173.27002 28514 ft 436 kts 280°
2026-05-05 21:57 -36.78037 173.23290 28861 ft 435 kts 280°
2026-05-05 21:57 -36.77490 173.19586 29210 ft 435 kts 280°
2026-05-05 21:57 -36.76944 173.15900 29556 ft 434 kts 280°
2026-05-05 21:57 -36.76401 173.12242 29897 ft 433 kts 280°
2026-05-05 21:58 -36.75851 173.08546 30237 ft 433 kts 280°
2026-05-05 21:58 -36.75306 173.04884 30568 ft 432 kts 280°
2026-05-05 21:58 -36.74753 173.01186 30891 ft 431 kts 280°
2026-05-05 21:58 -36.74201 172.97502 31205 ft 431 kts 280°
2026-05-05 21:59 -36.73653 172.93849 31508 ft 430 kts 280°
2026-05-05 21:59 -36.73095 172.90143 31808 ft 430 kts 280°
2026-05-05 21:59 -36.72547 172.86507 32022 ft 430 kts 280°
2026-05-05 22:00 -36.71428 172.79105 32003 ft 428 kts 280°
2026-05-05 22:00 -36.70320 172.71815 31981 ft 427 kts 280°
2026-05-05 22:01 -36.69215 172.64566 31997 ft 428 kts 280°
2026-05-05 22:01 -36.68097 172.57271 32017 ft 427 kts 280°
2026-05-05 22:02 -36.66982 172.50024 31995 ft 427 kts 280°
2026-05-05 22:02 -36.65861 172.42764 31995 ft 428 kts 280°
2026-05-05 22:03 -36.64740 172.35544 32014 ft 427 kts 280°
2026-05-05 22:03 -36.63607 172.28271 31994 ft 428 kts 281°
2026-05-05 22:04 -36.62473 172.21021 31999 ft 428 kts 281°
2026-05-05 22:04 -36.61342 172.13825 32010 ft 427 kts 281°
2026-05-05 22:05 -36.60199 172.06580 31992 ft 428 kts 281°
2026-05-05 22:05 -36.59051 171.99329 32007 ft 428 kts 281°
2026-05-05 22:06 -36.57897 171.92078 32001 ft 427 kts 281°
2026-05-05 22:06 -36.56745 171.84862 31995 ft 428 kts 281°
2026-05-05 22:07 -36.55586 171.77637 32012 ft 427 kts 281°
2026-05-05 22:07 -36.54425 171.70422 31994 ft 428 kts 281°
2026-05-05 22:08 -36.53251 171.63159 32003 ft 428 kts 281°
2026-05-05 22:08 -36.52081 171.55953 32003 ft 427 kts 281°
2026-05-05 22:09 -36.50903 171.48724 31994 ft 428 kts 281°
2026-05-05 22:09 -36.49723 171.41511 32012 ft 427 kts 281°
2026-05-05 22:10 -36.48536 171.34291 31996 ft 428 kts 282°
2026-05-05 22:10 -36.47351 171.27104 32000 ft 428 kts 282°
2026-05-05 22:11 -36.46150 171.19849 32007 ft 427 kts 282°
2026-05-05 22:11 -36.44955 171.12662 32000 ft 428 kts 282°
2026-05-05 22:12 -36.43750 171.05444 32000 ft 428 kts 282°
2026-05-05 22:12 -36.42543 170.98238 32001 ft 428 kts 282°
2026-05-05 22:13 -36.41331 170.91036 32001 ft 428 kts 282°
2026-05-05 22:13 -36.40113 170.83818 32001 ft 428 kts 282°
2026-05-05 22:14 -36.38893 170.76622 32001 ft 428 kts 282°
2026-05-05 22:14 -36.38096 170.69368 32006 ft 427 kts 272°
2026-05-05 22:15 -36.37701 170.62033 31999 ft 428 kts 274°
2026-05-05 22:15 -36.37243 170.54668 32000 ft 428 kts 274°
2026-05-05 22:16 -36.36777 170.47343 32001 ft 428 kts 274°
2026-05-05 22:16 -36.36307 170.40050 32001 ft 428 kts 274°
2026-05-05 22:17 -36.35827 170.32678 32001 ft 428 kts 275°
2026-05-05 22:17 -36.35348 170.25395 32001 ft 428 kts 275°
2026-05-05 22:18 -36.34860 170.18025 32001 ft 428 kts 275°
2026-05-05 22:18 -36.34372 170.10730 32001 ft 428 kts 275°
2026-05-05 22:19 -36.33876 170.03387 32001 ft 428 kts 275°
2026-05-05 22:19 -36.33376 169.96066 32001 ft 428 kts 275°
2026-05-05 22:20 -36.32872 169.88733 32001 ft 428 kts 275°
2026-05-05 22:20 -36.32364 169.81409 32001 ft 428 kts 275°
2026-05-05 22:21 -36.31852 169.74098 32001 ft 428 kts 275°
2026-05-05 22:21 -36.31335 169.66780 32001 ft 428 kts 275°
2026-05-05 22:22 -36.30811 169.59436 32001 ft 428 kts 275°
2026-05-05 22:22 -36.30286 169.52130 32001 ft 428 kts 275°
2026-05-05 22:23 -36.29755 169.44809 32001 ft 428 kts 275°
2026-05-05 22:23 -36.29219 169.37477 32001 ft 428 kts 275°
2026-05-05 22:24 -36.28682 169.30190 32001 ft 428 kts 275°
2026-05-05 22:24 -36.28139 169.22887 32001 ft 428 kts 275°
2026-05-05 22:25 -36.27587 169.15533 32001 ft 428 kts 275°
2026-05-05 22:25 -36.27036 169.08234 32001 ft 428 kts 275°
2026-05-05 22:26 -36.26479 169.00929 32001 ft 428 kts 275°
2026-05-05 22:26 -36.25917 168.93626 32001 ft 428 kts 275°
2026-05-05 22:27 -36.25349 168.86289 32001 ft 428 kts 275°
2026-05-05 22:27 -36.24779 168.78987 32001 ft 428 kts 275°
2026-05-05 22:28 -36.24204 168.71678 32001 ft 428 kts 275°
2026-05-05 22:28 -36.23626 168.64388 32001 ft 428 kts 275°
2026-05-05 22:29 -36.23039 168.57054 32001 ft 428 kts 275°
2026-05-05 22:29 -36.22451 168.49757 32001 ft 428 kts 275°
2026-05-05 22:30 -36.21860 168.42470 32001 ft 428 kts 275°
2026-05-05 22:30 -36.21261 168.35146 32001 ft 428 kts 275°
2026-05-05 22:31 -36.20662 168.27884 32001 ft 428 kts 276°
2026-05-05 22:31 -36.20056 168.20589 32001 ft 428 kts 276°
2026-05-05 22:32 -36.19443 168.13254 32001 ft 428 kts 276°
2026-05-05 22:32 -36.18829 168.05969 32001 ft 428 kts 276°
2026-05-05 22:33 -36.18210 167.98682 32001 ft 428 kts 276°
2026-05-05 22:33 -36.17583 167.91350 32001 ft 428 kts 276°
2026-05-05 22:34 -36.16955 167.84058 32001 ft 428 kts 276°
2026-05-05 22:34 -36.16325 167.76798 32001 ft 428 kts 276°
2026-05-05 22:35 -36.15687 167.69499 32001 ft 428 kts 276°
2026-05-05 22:35 -36.15045 167.62203 32001 ft 428 kts 276°
2026-05-05 22:36 -36.14401 167.54932 32001 ft 428 kts 276°
2026-05-05 22:36 -36.13747 167.47609 32001 ft 428 kts 276°
2026-05-05 22:37 -36.13096 167.40356 32001 ft 428 kts 276°
2026-05-05 22:37 -36.12433 167.33032 32001 ft 428 kts 276°
2026-05-05 22:38 -36.11771 167.25764 32001 ft 428 kts 276°
2026-05-05 22:38 -36.11104 167.18494 32001 ft 428 kts 276°
2026-05-05 22:39 -36.10432 167.11217 32001 ft 428 kts 276°
2026-05-05 22:39 -36.09754 167.03922 32001 ft 428 kts 276°
2026-05-05 22:40 -36.09074 166.96664 32001 ft 428 kts 276°
2026-05-05 22:40 -36.08385 166.89346 32001 ft 428 kts 276°
2026-05-05 22:41 -36.07698 166.82101 32001 ft 428 kts 276°
2026-05-05 22:41 -36.07000 166.74794 32001 ft 428 kts 276°
2026-05-05 22:42 -36.06303 166.67534 32001 ft 428 kts 276°
2026-05-05 22:42 -36.05598 166.60243 32001 ft 428 kts 276°
2026-05-05 22:43 -36.04892 166.52989 32001 ft 428 kts 276°
2026-05-05 22:43 -36.04179 166.45714 32001 ft 428 kts 276°
2026-05-05 22:44 -36.03464 166.38454 32001 ft 428 kts 276°
2026-05-05 22:44 -36.02743 166.31189 32001 ft 428 kts 277°
2026-05-05 22:45 -36.02017 166.23912 32001 ft 428 kts 277°
2026-05-05 22:45 -36.01290 166.16670 32001 ft 428 kts 277°
2026-05-05 22:46 -36.00552 166.09366 32001 ft 428 kts 277°
2026-05-05 22:46 -35.99814 166.02109 32001 ft 428 kts 277°
2026-05-05 22:47 -35.99072 165.94856 32001 ft 428 kts 277°
2026-05-05 22:47 -35.98324 165.87587 32001 ft 428 kts 277°
2026-05-05 22:48 -35.97577 165.80370 32001 ft 428 kts 277°
2026-05-05 22:48 -35.96818 165.73085 32001 ft 428 kts 277°
2026-05-05 22:49 -35.96056 165.65816 32001 ft 428 kts 277°
2026-05-05 22:49 -35.95294 165.58585 32001 ft 428 kts 277°
2026-05-05 22:50 -35.94526 165.51337 32001 ft 428 kts 277°
2026-05-05 22:50 -35.93749 165.44055 32001 ft 428 kts 277°
2026-05-05 22:51 -35.92973 165.36822 32001 ft 428 kts 277°
2026-05-05 22:51 -35.92193 165.29588 32001 ft 428 kts 278°
2026-05-05 22:52 -35.91404 165.22316 32001 ft 428 kts 278°
2026-05-05 22:52 -35.90612 165.15063 32001 ft 428 kts 278°
2026-05-05 22:53 -35.89822 165.07858 32001 ft 428 kts 277°
2026-05-05 22:53 -35.89020 165.00598 32001 ft 428 kts 277°
2026-05-05 22:54 -35.88219 164.93381 32001 ft 428 kts 277°
2026-05-05 22:54 -35.87407 164.86108 32001 ft 428 kts 278°
2026-05-05 22:55 -35.86599 164.78906 32001 ft 428 kts 278°
2026-05-05 22:55 -35.85778 164.71629 32001 ft 427 kts 278°
2026-05-05 22:56 -35.84957 164.64397 32001 ft 428 kts 278°
2026-05-05 22:56 -35.84131 164.57158 32001 ft 428 kts 278°
2026-05-05 22:57 -35.83305 164.49966 32001 ft 428 kts 278°
2026-05-05 22:57 -35.82469 164.42717 32001 ft 428 kts 278°
2026-05-05 22:58 -35.81629 164.35472 32001 ft 428 kts 278°
2026-05-05 22:58 -35.80791 164.28285 32001 ft 428 kts 278°
2026-05-05 22:59 -35.79938 164.21010 32001 ft 428 kts 278°
2026-05-05 22:59 -35.79087 164.13786 32001 ft 428 kts 278°
2026-05-05 23:00 -35.77805 164.02980 32001 ft 428 kts 278°
2026-05-05 23:00 -35.76941 163.95747 32001 ft 428 kts 278°
2026-05-05 23:01 -35.76075 163.88531 32001 ft 428 kts 278°
2026-05-05 23:01 -35.75206 163.81328 32001 ft 428 kts 278°
2026-05-05 23:02 -35.74329 163.74098 32001 ft 428 kts 278°
2026-05-05 23:02 -35.73447 163.66869 32001 ft 428 kts 278°
2026-05-05 23:03 -35.72568 163.59694 32001 ft 428 kts 278°
2026-05-05 23:03 -35.71679 163.52473 32002 ft 428 kts 278°
2026-05-05 23:04 -35.70786 163.45254 32001 ft 428 kts 278°
2026-05-05 23:04 -35.69887 163.38029 32001 ft 428 kts 278°
2026-05-05 23:05 -35.68986 163.30830 32001 ft 428 kts 279°
2026-05-05 23:05 -35.68081 163.23624 32001 ft 428 kts 279°
2026-05-05 23:06 -35.67170 163.16406 32001 ft 428 kts 279°
2026-05-05 23:06 -35.66257 163.09218 32001 ft 428 kts 279°
2026-05-05 23:07 -35.65343 163.02049 32001 ft 428 kts 279°
2026-05-05 23:07 -35.64417 162.94835 32001 ft 428 kts 279°
2026-05-05 23:08 -35.63486 162.87625 32001 ft 428 kts 279°
2026-05-05 23:08 -35.62557 162.80456 32001 ft 428 kts 279°
2026-05-05 23:09 -35.61621 162.73276 32001 ft 428 kts 279°
2026-05-05 23:09 -35.60675 162.66054 32001 ft 428 kts 279°
2026-05-05 23:10 -35.59729 162.58865 32001 ft 428 kts 279°
2026-05-05 23:10 -35.58778 162.51671 32001 ft 428 kts 279°
2026-05-05 23:11 -35.57827 162.44511 32001 ft 428 kts 279°
2026-05-05 23:11 -35.56870 162.37346 32001 ft 428 kts 279°
2026-05-05 23:12 -35.55906 162.30158 32001 ft 428 kts 279°
2026-05-05 23:12 -35.54935 162.22945 32001 ft 428 kts 279°
2026-05-05 23:13 -35.53963 162.15768 32001 ft 428 kts 279°
2026-05-05 23:13 -35.52984 162.08568 32001 ft 428 kts 279°
2026-05-05 23:14 -35.52009 162.01427 32001 ft 428 kts 279°
2026-05-05 23:14 -35.51024 161.94244 32001 ft 428 kts 279°
2026-05-05 23:15 -35.50029 161.87028 32001 ft 428 kts 279°
2026-05-05 23:15 -35.49037 161.79869 32001 ft 428 kts 279°
2026-05-05 23:16 -35.48043 161.72723 32001 ft 428 kts 279°
2026-05-05 23:16 -35.47039 161.65538 32001 ft 428 kts 279°
2026-05-05 23:17 -35.46036 161.58388 32001 ft 428 kts 279°
2026-05-05 23:17 -35.45027 161.51233 32001 ft 428 kts 279°
2026-05-05 23:18 -35.44008 161.44032 32001 ft 428 kts 279°
2026-05-05 23:18 -35.42991 161.36887 32001 ft 428 kts 279°
2026-05-05 23:19 -35.41971 161.29742 32001 ft 428 kts 280°
2026-05-05 23:19 -35.40943 161.22578 32001 ft 428 kts 280°
2026-05-05 23:20 -35.39909 161.15405 32001 ft 428 kts 280°
2026-05-05 23:20 -35.38874 161.08256 32001 ft 428 kts 280°
2026-05-05 23:21 -35.37835 161.01106 32001 ft 428 kts 280°
2026-05-05 23:21 -35.36793 160.93968 32001 ft 428 kts 280°
2026-05-05 23:22 -35.35743 160.86803 32001 ft 428 kts 280°
2026-05-05 23:22 -35.34694 160.79683 32001 ft 428 kts 280°
2026-05-05 23:23 -35.33636 160.72528 32001 ft 428 kts 280°
2026-05-05 23:23 -35.32577 160.65396 32001 ft 428 kts 280°
2026-05-05 23:24 -35.31509 160.58235 32001 ft 427 kts 280°
2026-05-05 23:24 -35.30442 160.51112 32001 ft 427 kts 280°
2026-05-05 23:25 -35.29367 160.43961 32001 ft 428 kts 280°
2026-05-05 23:25 -35.28289 160.36819 32001 ft 428 kts 280°
2026-05-05 23:26 -35.27208 160.29692 32001 ft 427 kts 281°
2026-05-05 23:26 -35.26125 160.22578 32001 ft 427 kts 281°
2026-05-05 23:27 -35.25032 160.15433 32001 ft 427 kts 281°
2026-05-05 23:27 -35.23938 160.08305 32001 ft 427 kts 281°
2026-05-05 23:28 -35.22839 160.01170 32001 ft 428 kts 281°
2026-05-05 23:28 -35.21742 159.94081 32001 ft 428 kts 281°
2026-05-05 23:29 -35.20635 159.86964 32001 ft 428 kts 281°
2026-05-05 23:29 -35.19524 159.79840 32001 ft 427 kts 281°
2026-05-05 23:30 -35.18410 159.72731 32001 ft 427 kts 281°
2026-05-05 23:30 -35.17286 159.65585 32001 ft 427 kts 281°
2026-05-05 23:31 -35.16165 159.58487 32001 ft 427 kts 281°
2026-05-05 23:31 -35.15040 159.51388 32001 ft 427 kts 281°
2026-05-05 23:32 -35.13909 159.44282 32001 ft 428 kts 281°
2026-05-05 23:32 -35.12769 159.37148 32001 ft 428 kts 281°
2026-05-05 23:33 -35.11633 159.30063 32001 ft 427 kts 281°
2026-05-05 23:33 -35.10491 159.22974 32001 ft 427 kts 281°
2026-05-05 23:34 -35.09335 159.15828 32001 ft 427 kts 281°
2026-05-05 23:34 -35.08189 159.08769 32001 ft 427 kts 281°
2026-05-05 23:35 -35.07028 159.01637 32001 ft 427 kts 281°
2026-05-05 23:35 -35.05866 158.94537 32001 ft 428 kts 281°
2026-05-05 23:36 -35.04704 158.87459 32001 ft 428 kts 281°
2026-05-05 23:36 -35.03531 158.80341 32001 ft 427 kts 281°
2026-05-05 23:37 -35.02363 158.73282 32001 ft 427 kts 281°
2026-05-05 23:37 -35.01180 158.66162 32001 ft 427 kts 281°
2026-05-05 23:38 -35.00003 158.59100 32001 ft 427 kts 281°
2026-05-05 23:38 -34.98818 158.52019 32001 ft 427 kts 281°
2026-05-05 23:39 -34.97627 158.44930 32001 ft 427 kts 281°
2026-05-05 23:39 -34.96434 158.37854 32001 ft 427 kts 281°
2026-05-05 23:40 -34.95238 158.30788 32001 ft 427 kts 282°
2026-05-05 23:40 -34.94036 158.23706 32001 ft 427 kts 282°
2026-05-05 23:41 -34.92833 158.16653 32001 ft 427 kts 282°
2026-05-05 23:41 -34.91620 158.09564 32001 ft 427 kts 282°
2026-05-05 23:42 -34.90409 158.02512 32001 ft 427 kts 282°
2026-05-05 23:42 -34.89191 157.95448 32001 ft 427 kts 282°
2026-05-05 23:43 -34.87968 157.88380 32002 ft 427 kts 282°
2026-05-05 23:43 -34.86744 157.81325 32001 ft 427 kts 282°
2026-05-05 23:44 -34.85514 157.74269 32001 ft 427 kts 282°
2026-05-05 23:44 -34.84272 157.67166 32001 ft 427 kts 282°
2026-05-05 23:45 -34.83037 157.60132 32001 ft 427 kts 282°
2026-05-05 23:45 -34.81797 157.53090 32001 ft 427 kts 282°
2026-05-05 23:46 -34.80545 157.46013 32001 ft 427 kts 282°
2026-05-05 23:46 -34.79291 157.38942 32001 ft 427 kts 282°
2026-05-05 23:47 -34.78042 157.31929 32001 ft 427 kts 282°
2026-05-05 23:47 -34.76778 157.24852 32001 ft 427 kts 282°
2026-05-05 23:48 -34.75516 157.17813 32001 ft 427 kts 282°
2026-05-05 23:48 -34.74251 157.10786 32001 ft 427 kts 282°
2026-05-05 23:49 -34.72981 157.03754 32001 ft 427 kts 282°
2026-05-05 23:49 -34.71705 156.96709 32001 ft 427 kts 282°
2026-05-05 23:50 -34.70423 156.89658 32001 ft 427 kts 282°
2026-05-05 23:50 -34.69140 156.82629 32001 ft 427 kts 282°
2026-05-05 23:51 -34.67852 156.75598 32001 ft 427 kts 282°
2026-05-05 23:51 -34.66561 156.68570 32001 ft 427 kts 282°
2026-05-05 23:52 -34.65263 156.61525 32001 ft 427 kts 282°
2026-05-05 23:52 -34.63962 156.54495 32001 ft 427 kts 282°
2026-05-05 23:53 -34.62660 156.47481 32001 ft 427 kts 282°
2026-05-05 23:53 -34.61359 156.40494 32001 ft 427 kts 282°
2026-05-05 23:54 -34.60044 156.33456 32001 ft 427 kts 283°
2026-05-05 23:54 -34.58727 156.26437 32001 ft 427 kts 283°
2026-05-05 23:55 -34.57405 156.19409 32001 ft 427 kts 283°
2026-05-05 23:55 -34.56088 156.12433 32001 ft 427 kts 283°
2026-05-05 23:56 -34.54751 156.05376 32001 ft 427 kts 283°
2026-05-05 23:56 -34.53424 155.98390 32001 ft 427 kts 283°
2026-05-05 23:57 -34.52090 155.91396 32001 ft 427 kts 283°
2026-05-05 23:57 -34.50740 155.84337 32001 ft 427 kts 283°
2026-05-05 23:58 -34.49397 155.77345 32001 ft 427 kts 283°
2026-05-05 23:58 -34.48053 155.70363 32001 ft 427 kts 283°
2026-05-05 23:59 -34.46693 155.63327 32001 ft 427 kts 283°
2026-05-05 23:59 -34.45344 155.56366 32001 ft 427 kts 283°
2026-05-06 00:00 -34.43984 155.49373 32001 ft 427 kts 283°
2026-05-06 00:00 -34.42612 155.42342 32001 ft 427 kts 283°
2026-05-06 00:01 -34.41244 155.35350 32001 ft 427 kts 283°
2026-05-06 00:01 -34.39865 155.28331 32001 ft 427 kts 283°
2026-05-06 00:02 -34.38491 155.21353 32001 ft 427 kts 283°
2026-05-06 00:02 -34.37158 155.14310 31996 ft 427 kts 278°
2026-05-06 00:03 -34.36544 155.07179 32013 ft 428 kts 276°
2026-05-06 00:03 -34.35835 155.00064 31994 ft 427 kts 277°
2026-05-06 00:04 -34.35099 154.92928 32000 ft 428 kts 277°
2026-05-06 00:04 -34.34359 154.85812 32006 ft 427 kts 277°
2026-05-06 00:05 -34.33236 154.75101 32000 ft 427 kts 277°
2026-05-06 00:06 -34.32486 154.67989 31996 ft 428 kts 277°
2026-05-06 00:06 -34.31730 154.60872 32010 ft 427 kts 277°
2026-05-06 00:07 -34.30968 154.53740 32001 ft 427 kts 277°
2026-05-06 00:07 -34.30205 154.46634 31999 ft 428 kts 277°
2026-05-06 00:08 -34.29435 154.39499 32001 ft 427 kts 277°
2026-05-06 00:08 -34.28662 154.32378 32001 ft 427 kts 277°
2026-05-06 00:09 -34.27886 154.25272 32001 ft 427 kts 277°
2026-05-06 00:09 -34.27108 154.18184 32001 ft 427 kts 277°
2026-05-06 00:10 -34.26320 154.11040 32001 ft 427 kts 277°
2026-05-06 00:10 -34.25531 154.03937 32001 ft 427 kts 277°
2026-05-06 00:11 -34.24739 153.96838 32001 ft 427 kts 277°
2026-05-06 00:11 -34.23943 153.89743 32001 ft 427 kts 277°
2026-05-06 00:12 -34.23140 153.82626 32001 ft 427 kts 277°
2026-05-06 00:12 -34.22335 153.75528 32001 ft 427 kts 277°
2026-05-06 00:13 -34.21527 153.68437 32001 ft 427 kts 277°
2026-05-06 00:13 -34.20710 153.61311 32001 ft 427 kts 277°
2026-05-06 00:14 -34.19892 153.54215 32001 ft 427 kts 277°
2026-05-06 00:14 -34.19070 153.47122 32001 ft 427 kts 277°
2026-05-06 00:15 -34.18241 153.40001 32001 ft 427 kts 277°
2026-05-06 00:15 -34.17411 153.32907 32001 ft 427 kts 278°
2026-05-06 00:16 -34.16574 153.25792 32001 ft 427 kts 278°
2026-05-06 00:16 -34.15736 153.18706 32001 ft 427 kts 278°
2026-05-06 00:17 -34.14892 153.11603 32001 ft 427 kts 278°
2026-05-06 00:17 -34.14045 153.04509 32001 ft 427 kts 278°
2026-05-06 00:18 -34.13199 152.97459 32001 ft 427 kts 278°
2026-05-06 00:18 -34.12338 152.90315 32001 ft 427 kts 278°
2026-05-06 00:19 -34.11483 152.83258 32001 ft 427 kts 278°
2026-05-06 00:19 -34.10617 152.76146 32001 ft 427 kts 278°
2026-05-06 00:20 -34.09754 152.69087 32001 ft 427 kts 278°
2026-05-06 00:20 -34.08880 152.61981 32001 ft 427 kts 278°
2026-05-06 00:21 -34.08028 152.54884 32000 ft 427 kts 276°
2026-05-06 00:21 -34.07391 152.47809 32001 ft 428 kts 276°
2026-05-06 00:22 -34.06724 152.40695 32001 ft 427 kts 276°
2026-05-06 00:22 -34.06048 152.33553 32001 ft 427 kts 277°
2026-05-06 00:23 -34.05373 152.26459 32001 ft 427 kts 277°
2026-05-06 00:23 -34.04688 152.19319 32001 ft 427 kts 277°
2026-05-06 00:24 -34.04002 152.12212 32001 ft 427 kts 277°
2026-05-06 00:24 -34.03310 152.05092 32001 ft 427 kts 277°
2026-05-06 00:25 -34.02602 151.97996 32001 ft 427 kts 277°
2026-05-06 00:25 -34.01891 151.90892 32001 ft 427 kts 277°
2026-05-06 00:26 -34.01178 151.83804 32001 ft 427 kts 277°
2026-05-06 00:26 -34.00454 151.76659 32001 ft 427 kts 277°
2026-05-06 00:27 -33.99733 151.69585 32001 ft 427 kts 277°
2026-05-06 00:27 -33.99005 151.62477 32001 ft 427 kts 277°
2026-05-06 00:28 -33.98272 151.55365 32001 ft 427 kts 277°
2026-05-06 00:28 -33.97538 151.48283 32001 ft 427 kts 277°
2026-05-06 00:29 -33.96796 151.41174 32001 ft 427 kts 277°
2026-05-06 00:29 -33.96051 151.34061 32001 ft 427 kts 277°
2026-05-06 00:30 -33.95301 151.26952 32001 ft 427 kts 277°
2026-05-06 00:30 -33.94548 151.19858 32001 ft 427 kts 277°
2026-05-06 00:31 -33.93024 151.12964 32010 ft 427 kts 288°
2026-05-06 00:31 -33.91228 151.06148 31992 ft 428 kts 287°
2026-05-06 00:32 -33.89453 150.99361 32010 ft 427 kts 287°
2026-05-06 00:32 -33.87667 150.92535 31997 ft 427 kts 287°
2026-05-06 00:33 -33.85878 150.85721 31997 ft 428 kts 287°
2026-05-06 00:33 -33.84077 150.78874 32009 ft 427 kts 287°
2026-05-06 00:34 -33.82277 150.72052 31994 ft 428 kts 287°
2026-05-06 00:34 -33.80489 150.65288 32006 ft 427 kts 287°
2026-05-06 00:35 -33.78675 150.58444 32002 ft 427 kts 287°
2026-05-06 00:35 -33.76869 150.51648 31998 ft 428 kts 287°
2026-05-06 00:36 -33.75058 150.44849 32000 ft 428 kts 287°
2026-05-06 00:36 -33.73250 150.38081 32001 ft 427 kts 287°
2026-05-06 00:37 -33.71431 150.31287 32001 ft 427 kts 288°
2026-05-06 00:37 -33.69594 150.24493 32000 ft 427 kts 288°
2026-05-06 00:38 -33.67745 150.17693 32000 ft 427 kts 288°
2026-05-06 00:38 -33.65902 150.10924 32000 ft 427 kts 288°
2026-05-06 00:39 -33.64053 150.04155 32000 ft 427 kts 288°
2026-05-06 00:39 -33.62194 149.97366 32000 ft 427 kts 288°
2026-05-06 00:40 -33.60339 149.90604 32000 ft 427 kts 288°
2026-05-06 00:40 -33.58482 149.83855 32001 ft 427 kts 288°
2026-05-06 00:41 -33.56619 149.77097 32000 ft 427 kts 288°
2026-05-06 00:41 -33.54739 149.70294 32000 ft 427 kts 288°
2026-05-06 00:42 -33.52867 149.63539 32000 ft 427 kts 288°
2026-05-06 00:42 -33.50990 149.56779 32000 ft 427 kts 288°
2026-05-06 00:43 -33.49113 149.50035 32001 ft 427 kts 288°
2026-05-06 00:43 -33.47223 149.43265 32001 ft 427 kts 288°
2026-05-06 00:44 -33.45342 149.36539 32001 ft 427 kts 288°
2026-05-06 00:44 -33.43454 149.29808 32001 ft 427 kts 289°
2026-05-06 00:45 -33.41558 149.23058 32001 ft 427 kts 289°
2026-05-06 00:45 -33.39661 149.16324 32001 ft 427 kts 289°
2026-05-06 00:46 -33.37757 149.09582 32001 ft 427 kts 289°
2026-05-06 00:46 -33.35856 149.02864 32001 ft 427 kts 289°
2026-05-06 00:47 -33.33946 148.96133 32001 ft 427 kts 289°
2026-05-06 00:47 -33.32039 148.89424 32001 ft 427 kts 289°
2026-05-06 00:48 -33.30120 148.82693 32001 ft 427 kts 289°
2026-05-06 00:48 -33.28200 148.75975 32001 ft 427 kts 289°
2026-05-06 00:49 -33.26266 148.69218 32001 ft 427 kts 289°
2026-05-06 00:49 -33.24341 148.62511 32001 ft 427 kts 289°
2026-05-06 00:50 -33.22411 148.55804 32001 ft 427 kts 289°
2026-05-06 00:50 -33.20481 148.49110 32001 ft 427 kts 289°
2026-05-06 00:51 -33.18539 148.42390 32001 ft 427 kts 289°
2026-05-06 00:51 -33.16596 148.35681 32001 ft 427 kts 289°
2026-05-06 00:52 -33.14660 148.29015 32001 ft 427 kts 289°
2026-05-06 00:52 -33.12735 148.22304 31998 ft 427 kts 286°
2026-05-06 00:53 -33.11334 148.15420 32011 ft 427 kts 284°
2026-05-06 00:53 -33.09877 148.08543 31995 ft 427 kts 284°
2026-05-06 00:54 -33.08402 148.01662 32000 ft 428 kts 284°
2026-05-06 00:54 -33.06929 147.94817 32006 ft 427 kts 284°
2026-05-06 00:55 -33.05447 147.87950 32002 ft 427 kts 284°
2026-05-06 00:55 -33.03956 147.81065 32001 ft 427 kts 284°
2026-05-06 00:56 -33.02473 147.74234 32001 ft 427 kts 284°
2026-05-06 00:56 -33.00976 147.67362 32001 ft 427 kts 284°
2026-05-06 00:57 -32.99486 147.60539 32001 ft 427 kts 284°
2026-05-06 00:57 -32.97981 147.53665 32001 ft 427 kts 284°
2026-05-06 00:58 -32.96476 147.46808 32001 ft 427 kts 284°
2026-05-06 00:58 -32.94977 147.40002 32001 ft 427 kts 284°
2026-05-06 00:59 -32.93460 147.33136 32001 ft 427 kts 285°
2026-05-06 00:59 -32.91949 147.26312 32001 ft 427 kts 285°
2026-05-06 01:00 -32.90424 147.19447 32001 ft 427 kts 285°
2026-05-06 01:00 -32.88907 147.12634 32001 ft 427 kts 285°
2026-05-06 01:01 -32.87376 147.05778 32001 ft 427 kts 285°
2026-05-06 01:01 -32.85855 146.98985 32001 ft 427 kts 285°
2026-05-06 01:02 -32.84318 146.92142 32001 ft 427 kts 285°
2026-05-06 01:02 -32.82783 146.85329 32001 ft 427 kts 285°
2026-05-06 01:03 -32.81242 146.78502 32001 ft 427 kts 285°
2026-05-06 01:03 -32.79691 146.71649 32001 ft 427 kts 285°
2026-05-06 01:04 -32.78143 146.64835 32001 ft 427 kts 285°
2026-05-06 01:04 -32.76590 146.58012 32001 ft 427 kts 285°
2026-05-06 01:05 -32.75035 146.51204 32001 ft 427 kts 285°
2026-05-06 01:05 -32.73476 146.44394 32001 ft 427 kts 285°
2026-05-06 01:06 -32.71915 146.37592 32001 ft 427 kts 285°
2026-05-06 01:06 -32.70345 146.30771 32001 ft 427 kts 285°
2026-05-06 01:07 -32.68607 146.23241 32001 ft 427 kts 285°
2026-05-06 01:07 -32.67033 146.16438 32001 ft 427 kts 285°
2026-05-06 01:08 -32.65458 146.09654 32001 ft 427 kts 285°
2026-05-06 01:08 -32.63875 146.02850 32001 ft 427 kts 285°
2026-05-06 01:09 -32.62289 145.96056 32001 ft 427 kts 285°
2026-05-06 01:09 -32.60699 145.89258 32001 ft 427 kts 285°
2026-05-06 01:10 -32.59104 145.82459 32001 ft 427 kts 285°
2026-05-06 01:10 -32.57503 145.75650 32001 ft 427 kts 285°
2026-05-06 01:11 -32.55912 145.68906 32001 ft 427 kts 285°
2026-05-06 01:11 -32.54304 145.62105 32001 ft 427 kts 285°
2026-05-06 01:12 -32.52695 145.55316 32001 ft 427 kts 285°
2026-05-06 01:12 -32.51080 145.48521 32001 ft 427 kts 285°
2026-05-06 01:13 -32.49470 145.41765 32001 ft 427 kts 285°
2026-05-06 01:13 -32.47849 145.34982 32001 ft 427 kts 286°
2026-05-06 01:14 -32.45414 145.24820 32001 ft 427 kts 286°
2026-05-06 01:14 -32.43790 145.18068 32001 ft 427 kts 286°
2026-05-06 01:15 -32.42158 145.11299 32001 ft 427 kts 286°
2026-05-06 01:15 -32.40520 145.04524 32001 ft 427 kts 286°
2026-05-06 01:16 -32.38880 144.97755 32001 ft 427 kts 286°
2026-05-06 01:16 -32.37237 144.90993 32001 ft 427 kts 286°
2026-05-06 01:17 -32.35598 144.84265 32001 ft 427 kts 286°
2026-05-06 01:17 -32.33943 144.77490 32001 ft 427 kts 286°
2026-05-06 01:18 -32.32290 144.70737 32001 ft 427 kts 286°
2026-05-06 01:18 -32.30640 144.64015 32001 ft 427 kts 286°
2026-05-06 01:19 -32.28975 144.57250 32001 ft 427 kts 286°
2026-05-06 01:19 -32.27312 144.50508 32001 ft 427 kts 286°
2026-05-06 01:20 -32.25640 144.43745 32002 ft 427 kts 286°
2026-05-06 01:20 -32.23969 144.37009 32001 ft 427 kts 286°
2026-05-06 01:21 -32.22300 144.30293 32001 ft 427 kts 286°
2026-05-06 01:21 -32.20615 144.23534 32001 ft 427 kts 286°
2026-05-06 01:22 -32.18944 144.16843 32001 ft 427 kts 286°
2026-05-06 01:22 -32.17248 144.10071 32001 ft 427 kts 286°
2026-05-06 01:23 -32.15567 144.03374 32001 ft 427 kts 286°
2026-05-06 01:23 -32.13875 143.96651 32001 ft 427 kts 286°
2026-05-06 01:24 -32.12174 143.89909 32001 ft 427 kts 286°
2026-05-06 01:24 -32.10475 143.83194 32001 ft 427 kts 286°
2026-05-06 01:25 -32.08775 143.76488 32001 ft 427 kts 286°
2026-05-06 01:25 -32.07061 143.69743 32001 ft 427 kts 286°
2026-05-06 01:26 -32.05358 143.63058 32001 ft 427 kts 286°
2026-05-06 01:26 -32.03643 143.56343 32001 ft 427 kts 286°
2026-05-06 01:27 -32.01923 143.49626 32001 ft 427 kts 286°
2026-05-06 01:27 -32.00203 143.42929 32001 ft 427 kts 286°
2026-05-06 01:28 -31.98474 143.36209 32001 ft 427 kts 286°
2026-05-06 01:28 -31.96753 143.29540 32001 ft 427 kts 287°
2026-05-06 01:29 -31.95020 143.22839 32001 ft 427 kts 287°
2026-05-06 01:29 -31.93276 143.16112 32001 ft 427 kts 287°
2026-05-06 01:30 -31.91547 143.09459 32001 ft 427 kts 287°
2026-05-06 01:30 -31.89798 143.02745 32001 ft 427 kts 287°
2026-05-06 01:31 -31.88054 142.96066 32001 ft 427 kts 287°
2026-05-06 01:31 -31.86296 142.89351 32001 ft 427 kts 287°
2026-05-06 01:32 -31.84543 142.82671 32001 ft 427 kts 287°
2026-05-06 01:32 -31.82791 142.76009 32001 ft 427 kts 287°
2026-05-06 01:33 -31.81028 142.69318 32001 ft 427 kts 287°
2026-05-06 01:33 -31.79268 142.62660 32001 ft 427 kts 287°
2026-05-06 01:34 -31.77495 142.55965 32001 ft 427 kts 287°
2026-05-06 01:34 -31.75734 142.49333 32001 ft 427 kts 287°
2026-05-06 01:35 -31.73957 142.42653 32001 ft 427 kts 287°
2026-05-06 01:35 -31.72178 142.35985 32001 ft 427 kts 287°
2026-05-06 01:36 -31.70401 142.29336 32001 ft 427 kts 287°
2026-05-06 01:36 -31.68618 142.22682 32001 ft 427 kts 287°
2026-05-06 01:37 -31.66823 142.16000 32001 ft 427 kts 287°
2026-05-06 01:37 -31.65028 142.09334 32001 ft 427 kts 287°
2026-05-06 01:38 -31.63235 142.02689 32001 ft 427 kts 287°
2026-05-06 01:38 -31.61436 141.96037 32001 ft 427 kts 287°
2026-05-06 01:39 -31.59633 141.89388 32001 ft 427 kts 287°
2026-05-06 01:39 -31.57832 141.82759 32001 ft 427 kts 287°
2026-05-06 01:40 -31.56017 141.76092 32001 ft 427 kts 287°
2026-05-06 01:40 -31.54211 141.69478 32001 ft 427 kts 287°
2026-05-06 01:41 -31.52392 141.62828 32001 ft 427 kts 287°
2026-05-06 01:41 -31.50568 141.56174 32001 ft 427 kts 287°
2026-05-06 01:42 -31.48752 141.49568 32001 ft 427 kts 287°
2026-05-06 01:42 -31.46925 141.42937 32001 ft 427 kts 287°
2026-05-06 01:43 -31.45094 141.36302 32001 ft 427 kts 287°
2026-05-06 01:43 -31.43263 141.29686 32001 ft 427 kts 288°
2026-05-06 01:44 -31.41422 141.23047 32001 ft 427 kts 288°
2026-05-06 01:44 -31.39585 141.16437 32001 ft 427 kts 288°
2026-05-06 01:45 -31.37737 141.09804 32001 ft 427 kts 288°
2026-05-06 01:45 -31.35891 141.03189 32001 ft 427 kts 288°
2026-05-06 01:46 -31.34038 140.96594 32001 ft 427 kts 288°
2026-05-06 01:46 -31.32174 140.89989 32001 ft 427 kts 288°
2026-05-06 01:47 -31.30306 140.83386 32001 ft 427 kts 288°
2026-05-06 01:47 -31.28437 140.76794 32001 ft 427 kts 288°
2026-05-06 01:48 -31.26559 140.70184 32001 ft 427 kts 288°
2026-05-06 01:48 -31.24676 140.63570 32001 ft 427 kts 288°
2026-05-06 01:49 -31.22794 140.56975 32001 ft 427 kts 288°
2026-05-06 01:49 -31.21128 140.51149 32001 ft 427 kts 288°
2026-05-06 01:50 -31.19243 140.44569 32001 ft 427 kts 288°
2026-05-06 01:50 -31.17356 140.38001 32001 ft 427 kts 288°
2026-05-06 01:51 -31.15457 140.31401 32001 ft 427 kts 289°
2026-05-06 01:51 -31.13568 140.24852 32001 ft 427 kts 289°
2026-05-06 01:52 -31.11664 140.18265 32001 ft 427 kts 289°
2026-05-06 01:52 -31.09757 140.11681 32001 ft 427 kts 289°
2026-05-06 01:53 -31.07852 140.05118 32001 ft 427 kts 289°
2026-05-06 01:53 -31.05934 139.98521 32001 ft 427 kts 289°
2026-05-06 01:54 -31.04031 139.91995 32001 ft 427 kts 289°
2026-05-06 01:54 -31.02109 139.85417 32001 ft 427 kts 289°
2026-05-06 01:55 -31.00186 139.78851 32001 ft 427 kts 289°
2026-05-06 01:55 -30.98257 139.72275 32001 ft 427 kts 289°
2026-05-06 01:56 -30.96338 139.65749 32001 ft 427 kts 289°
2026-05-06 01:56 -30.94396 139.59157 32001 ft 427 kts 289°
2026-05-06 01:57 -30.92471 139.52637 32001 ft 427 kts 289°
2026-05-06 01:57 -30.90534 139.46091 32001 ft 427 kts 289°
2026-05-06 01:58 -30.88582 139.39505 32001 ft 427 kts 289°
2026-05-06 01:58 -30.86649 139.33002 32001 ft 427 kts 289°
2026-05-06 01:59 -30.84700 139.26454 32001 ft 427 kts 289°
2026-05-06 01:59 -30.82748 139.19914 32001 ft 427 kts 289°
2026-05-06 02:00 -30.80785 139.13350 32001 ft 427 kts 289°
2026-05-06 02:00 -30.78826 139.06812 32001 ft 427 kts 289°
2026-05-06 02:01 -30.76866 139.00285 32001 ft 427 kts 289°
2026-05-06 02:01 -30.74913 138.93793 32001 ft 427 kts 289°
2026-05-06 02:02 -30.72936 138.87234 32001 ft 427 kts 289°
2026-05-06 02:02 -30.70971 138.80731 32001 ft 427 kts 289°
2026-05-06 02:03 -30.68999 138.74219 32001 ft 427 kts 289°
2026-05-06 02:03 -30.67016 138.67682 32001 ft 427 kts 289°
2026-05-06 02:04 -30.65036 138.61169 32001 ft 427 kts 289°
2026-05-06 02:04 -30.63057 138.54671 32001 ft 427 kts 289°
2026-05-06 02:05 -30.61064 138.48141 32001 ft 427 kts 289°
2026-05-06 02:05 -30.58883 138.41731 31997 ft 427 kts 295°
2026-05-06 02:06 -30.56345 138.35460 32000 ft 428 kts 295°
2026-05-06 02:06 -30.53828 138.29215 32006 ft 427 kts 295°
2026-05-06 02:07 -30.51306 138.22961 32002 ft 427 kts 295°
2026-05-06 02:07 -30.48777 138.16701 32001 ft 427 kts 295°
2026-05-06 02:08 -30.46262 138.10487 32001 ft 427 kts 295°
2026-05-06 02:08 -30.43725 138.04230 32001 ft 427 kts 295°
2026-05-06 02:09 -30.41192 137.97994 32001 ft 427 kts 295°
2026-05-06 02:09 -30.38660 137.91768 32001 ft 427 kts 295°
2026-05-06 02:10 -30.36124 137.85545 32001 ft 427 kts 295°
2026-05-06 02:10 -30.33578 137.79305 32001 ft 427 kts 295°
2026-05-06 02:11 -30.31023 137.73058 32001 ft 427 kts 295°
2026-05-06 02:11 -30.28483 137.66855 32001 ft 427 kts 295°
2026-05-06 02:12 -30.25931 137.60632 32001 ft 427 kts 295°
2026-05-06 02:12 -30.23380 137.54422 32001 ft 427 kts 295°
2026-05-06 02:13 -30.20817 137.48196 32001 ft 427 kts 295°
2026-05-06 02:13 -30.18265 137.42006 32001 ft 427 kts 295°
2026-05-06 02:14 -30.15704 137.35805 32001 ft 427 kts 295°
2026-05-06 02:14 -30.13132 137.29585 32001 ft 427 kts 295°
2026-05-06 02:15 -30.10560 137.23379 32001 ft 427 kts 295°
2026-05-06 02:15 -30.07995 137.17197 32001 ft 427 kts 295°
2026-05-06 02:16 -30.05417 137.10997 32001 ft 427 kts 295°
2026-05-06 02:16 -30.02826 137.04773 32001 ft 427 kts 295°
2026-05-06 02:17 -30.00249 136.98596 32001 ft 427 kts 295°
2026-05-06 02:17 -29.97661 136.92398 32001 ft 427 kts 295°
2026-05-06 02:18 -29.95079 136.86227 32001 ft 427 kts 295°
2026-05-06 02:18 -29.92493 136.80060 32001 ft 427 kts 295°
2026-05-06 02:19 -29.89898 136.73877 32002 ft 427 kts 295°
2026-05-06 02:19 -29.87306 136.67711 32001 ft 427 kts 295°
2026-05-06 02:20 -29.83399 136.58440 32001 ft 427 kts 295°
2026-05-06 02:21 -29.80811 136.52309 32001 ft 427 kts 295°
2026-05-06 02:21 -29.78186 136.46101 32001 ft 427 kts 295°
2026-05-06 02:22 -29.75595 136.39984 32001 ft 427 kts 295°
2026-05-06 02:22 -29.72975 136.33809 32001 ft 427 kts 296°
2026-05-06 02:23 -29.70361 136.27657 32001 ft 427 kts 296°
2026-05-06 02:23 -29.67747 136.21529 32001 ft 427 kts 296°
2026-05-06 02:24 -29.65108 136.15375 32001 ft 427 kts 296°
2026-05-06 02:24 -29.62476 136.09248 32001 ft 427 kts 296°
2026-05-06 02:25 -29.59833 136.03104 32001 ft 427 kts 296°
2026-05-06 02:25 -29.57191 135.96971 32001 ft 427 kts 296°
2026-05-06 02:26 -29.54546 135.90843 32001 ft 427 kts 296°
2026-05-06 02:26 -29.51902 135.84724 32001 ft 427 kts 296°
2026-05-06 02:27 -29.49256 135.78613 32001 ft 427 kts 296°
2026-05-06 02:27 -29.46600 135.72488 32001 ft 427 kts 296°
2026-05-06 02:28 -29.43938 135.66359 32001 ft 427 kts 296°
2026-05-06 02:28 -29.41276 135.60239 32001 ft 427 kts 296°
2026-05-06 02:29 -29.38622 135.54146 32001 ft 427 kts 296°
2026-05-06 02:29 -29.35956 135.48038 32001 ft 427 kts 296°
2026-05-06 02:30 -29.33287 135.41930 32001 ft 427 kts 296°
2026-05-06 02:30 -29.30623 135.35841 32001 ft 427 kts 296°
2026-05-06 02:31 -29.27961 135.29771 32001 ft 427 kts 297°
2026-05-06 02:31 -29.25269 135.23640 32001 ft 427 kts 297°
2026-05-06 02:32 -29.22609 135.17590 32001 ft 427 kts 297°
2026-05-06 02:32 -29.19916 135.11478 32001 ft 427 kts 297°
2026-05-06 02:33 -29.17240 135.05411 32001 ft 427 kts 297°
2026-05-06 02:33 -29.16347 135.03389 32001 ft 427 kts 297°
2026-05-06 02:34 -29.11862 134.93248 32001 ft 427 kts 297°
2026-05-06 02:34 -29.09164 134.87160 32001 ft 427 kts 297°
2026-05-06 02:35 -29.06474 134.81099 32001 ft 427 kts 297°
2026-05-06 02:35 -29.03783 134.75044 32001 ft 427 kts 297°
2026-05-06 02:36 -29.01068 134.68948 32001 ft 427 kts 297°
2026-05-06 02:36 -28.98376 134.62911 32001 ft 427 kts 297°
2026-05-06 02:37 -28.95676 134.56863 32001 ft 427 kts 297°
2026-05-06 02:37 -28.92962 134.50797 32001 ft 427 kts 297°
2026-05-06 02:38 -28.90261 134.44768 32001 ft 427 kts 297°
2026-05-06 02:38 -28.87541 134.38705 32001 ft 427 kts 297°
2026-05-06 02:39 -28.84834 134.32684 32001 ft 427 kts 297°
2026-05-06 02:39 -28.82111 134.26633 32001 ft 427 kts 297°
2026-05-06 02:40 -28.79386 134.20587 32001 ft 427 kts 297°
2026-05-06 02:40 -28.76672 134.14575 32001 ft 427 kts 297°
2026-05-06 02:41 -28.73942 134.08537 32001 ft 427 kts 297°
2026-05-06 02:41 -28.71216 134.02518 32001 ft 427 kts 297°
2026-05-06 02:42 -28.68474 133.96472 32001 ft 427 kts 297°
2026-05-06 02:42 -28.65744 133.90459 32001 ft 427 kts 297°
2026-05-06 02:43 -28.63010 133.84448 32001 ft 427 kts 297°
2026-05-06 02:43 -28.60270 133.78435 32001 ft 427 kts 297°
2026-05-06 02:44 -28.57512 133.72388 32001 ft 427 kts 297°
2026-05-06 02:44 -28.54780 133.66408 32001 ft 427 kts 297°
2026-05-06 02:45 -28.52020 133.60376 32001 ft 427 kts 297°
2026-05-06 02:45 -28.49274 133.54384 32001 ft 427 kts 297°
2026-05-06 02:46 -28.46522 133.48386 32001 ft 427 kts 297°
2026-05-06 02:46 -28.43766 133.42390 32001 ft 427 kts 297°
2026-05-06 02:47 -28.41007 133.36397 32001 ft 427 kts 297°
2026-05-06 02:47 -28.38239 133.30391 32001 ft 427 kts 297°
2026-05-06 02:48 -28.35486 133.24428 32001 ft 427 kts 297°
2026-05-06 02:48 -28.32724 133.18454 32001 ft 427 kts 297°
2026-05-06 02:49 -28.29941 133.12442 32001 ft 427 kts 297°
2026-05-06 02:49 -28.27170 133.06467 32001 ft 427 kts 297°
2026-05-06 02:50 -28.24406 133.00513 32001 ft 427 kts 297°
2026-05-06 02:50 -28.21619 132.94521 32001 ft 427 kts 297°
2026-05-06 02:51 -28.18847 132.88567 32001 ft 427 kts 297°
2026-05-06 02:51 -28.16064 132.82600 32001 ft 427 kts 297°
2026-05-06 02:52 -28.13284 132.76648 32001 ft 427 kts 297°
2026-05-06 02:52 -28.10491 132.70676 32001 ft 427 kts 297°
2026-05-06 02:53 -28.07697 132.64710 32001 ft 427 kts 297°
2026-05-06 02:53 -28.04916 132.58781 32001 ft 427 kts 297°
2026-05-06 02:54 -28.02119 132.52828 32001 ft 427 kts 297°
2026-05-06 02:54 -27.99322 132.46881 32001 ft 427 kts 297°
2026-05-06 02:55 -27.96527 132.40948 32001 ft 427 kts 297°
2026-05-06 02:55 -27.93713 132.34984 32001 ft 427 kts 298°
2026-05-06 02:56 -27.90903 132.29036 32001 ft 427 kts 298°
2026-05-06 02:56 -27.88104 132.23119 32001 ft 427 kts 298°
2026-05-06 02:57 -27.85283 132.17165 32001 ft 427 kts 298°
2026-05-06 02:57 -27.82470 132.11235 32001 ft 427 kts 298°
2026-05-06 02:58 -27.79662 132.05325 32001 ft 427 kts 298°
2026-05-06 02:58 -27.76833 131.99381 32001 ft 427 kts 298°
2026-05-06 02:59 -27.74010 131.93457 32001 ft 427 kts 298°
2026-05-06 02:59 -27.71185 131.87535 32001 ft 427 kts 298°
2026-05-06 03:00 -27.68362 131.81630 32001 ft 427 kts 298°
2026-05-06 03:00 -27.65536 131.75726 32001 ft 427 kts 298°
2026-05-06 03:01 -27.62693 131.69794 32001 ft 427 kts 298°
2026-05-06 03:01 -27.59864 131.63901 32001 ft 427 kts 298°
2026-05-06 03:02 -27.57028 131.58000 32001 ft 427 kts 298°
2026-05-06 03:02 -27.54182 131.52087 32000 ft 427 kts 298°
2026-05-06 03:03 -27.51343 131.46196 32000 ft 427 kts 298°
2026-05-06 03:03 -27.48501 131.40309 32000 ft 427 kts 298°
2026-05-06 03:04 -27.45661 131.34433 32000 ft 427 kts 298°
2026-05-06 03:04 -27.42801 131.28523 32000 ft 427 kts 298°
2026-05-06 03:05 -27.39956 131.22655 32000 ft 427 kts 298°
2026-05-06 03:05 -27.37091 131.16751 32000 ft 427 kts 298°
2026-05-06 03:06 -27.34245 131.10896 32000 ft 427 kts 298°
2026-05-06 03:06 -27.31375 131.04997 32000 ft 427 kts 298°
2026-05-06 03:07 -27.28510 130.99120 32000 ft 427 kts 298°
2026-05-06 03:07 -27.25657 130.93272 32000 ft 427 kts 298°
2026-05-06 03:08 -27.22776 130.87378 32000 ft 427 kts 298°
2026-05-06 03:08 -27.19902 130.81505 32001 ft 427 kts 298°
2026-05-06 03:09 -27.17036 130.75658 32001 ft 427 kts 298°
2026-05-06 03:09 -27.14157 130.69789 32000 ft 427 kts 298°
2026-05-06 03:10 -27.11287 130.63948 32000 ft 427 kts 298°
2026-05-06 03:10 -27.08399 130.58079 32001 ft 427 kts 298°
2026-05-06 03:11 -27.05527 130.52251 32000 ft 427 kts 298°
2026-05-06 03:11 -27.02640 130.46399 32000 ft 427 kts 298°
2026-05-06 03:12 -26.99745 130.40538 32000 ft 427 kts 298°
2026-05-06 03:12 -26.96860 130.34708 32000 ft 427 kts 299°
2026-05-06 03:13 -26.93962 130.28856 32000 ft 427 kts 299°
2026-05-06 03:13 -26.91065 130.23016 32000 ft 427 kts 299°
2026-05-06 03:14 -26.88168 130.17183 32000 ft 427 kts 299°
2026-05-06 03:14 -26.85266 130.11350 32000 ft 427 kts 299°
2026-05-06 03:15 -26.82374 130.05542 32000 ft 427 kts 299°
2026-05-06 03:15 -26.79471 129.99721 32000 ft 427 kts 299°
2026-05-06 03:16 -26.76570 129.93912 32000 ft 427 kts 299°
2026-05-06 03:16 -26.73663 129.88098 32000 ft 427 kts 299°
2026-05-06 03:17 -26.70743 129.82266 32000 ft 427 kts 299°
2026-05-06 03:17 -26.67821 129.76437 32000 ft 427 kts 299°
2026-05-06 03:18 -26.64915 129.70648 32000 ft 427 kts 299°
2026-05-06 03:18 -26.61998 129.64845 32000 ft 427 kts 299°
2026-05-06 03:19 -26.59063 129.59015 32000 ft 427 kts 299°
2026-05-06 03:19 -26.56140 129.53215 32000 ft 427 kts 299°
2026-05-06 03:20 -26.51756 129.44531 32001 ft 427 kts 299°
2026-05-06 03:20 -26.48835 129.38754 32001 ft 427 kts 299°
2026-05-06 03:21 -26.45905 129.32968 32001 ft 427 kts 299°
2026-05-06 03:21 -26.42967 129.27173 32001 ft 427 kts 299°
2026-05-06 03:22 -26.40025 129.21378 32001 ft 427 kts 299°
2026-05-06 03:22 -26.37087 129.15596 32001 ft 427 kts 299°
2026-05-06 03:23 -26.34141 129.09808 32001 ft 427 kts 299°
2026-05-06 03:23 -26.31202 129.04040 32001 ft 427 kts 299°
2026-05-06 03:24 -26.28261 128.98277 32001 ft 427 kts 299°
2026-05-06 03:24 -26.25314 128.92513 32001 ft 427 kts 300°
2026-05-06 03:25 -26.22349 128.86717 32001 ft 427 kts 299°
2026-05-06 03:25 -26.19388 128.80940 32001 ft 427 kts 299°
2026-05-06 03:26 -26.16436 128.75188 32001 ft 427 kts 299°
2026-05-06 03:26 -26.13477 128.69428 32001 ft 427 kts 299°
2026-05-06 03:27 -26.10519 128.63678 32001 ft 427 kts 299°
2026-05-06 03:27 -26.07560 128.57933 32001 ft 427 kts 299°
2026-05-06 03:28 -26.04600 128.52193 32001 ft 427 kts 299°
2026-05-06 03:28 -26.01622 128.46428 32001 ft 427 kts 299°
2026-05-06 03:29 -25.98670 128.40718 32001 ft 427 kts 299°
2026-05-06 03:29 -25.95683 128.34949 32001 ft 427 kts 300°
2026-05-06 03:30 -25.92717 128.29227 32001 ft 427 kts 300°
2026-05-06 03:30 -25.89734 128.23479 32001 ft 427 kts 300°
2026-05-06 03:31 -25.86761 128.17758 32001 ft 427 kts 300°
2026-05-06 03:31 -25.83778 128.12025 32001 ft 427 kts 300°
2026-05-06 03:32 -25.80806 128.06320 32001 ft 427 kts 300°
2026-05-06 03:32 -25.77810 128.00577 32001 ft 427 kts 300°
2026-05-06 03:33 -25.74827 127.94866 32001 ft 427 kts 300°
2026-05-06 03:33 -25.71830 127.89135 32001 ft 427 kts 300°
2026-05-06 03:34 -25.68839 127.83423 32001 ft 427 kts 300°
2026-05-06 03:34 -25.65855 127.77731 32001 ft 427 kts 300°
2026-05-06 03:35 -25.62845 127.71997 32001 ft 427 kts 300°
2026-05-06 03:35 -25.59842 127.66283 32001 ft 427 kts 300°
2026-05-06 03:36 -25.56852 127.60601 32001 ft 427 kts 300°
2026-05-06 03:36 -25.53846 127.54896 32001 ft 427 kts 300°
2026-05-06 03:37 -25.50837 127.49192 32001 ft 427 kts 300°
2026-05-06 03:37 -25.47832 127.43502 32001 ft 427 kts 300°
2026-05-06 03:38 -25.44808 127.37784 32001 ft 427 kts 300°
2026-05-06 03:38 -25.41791 127.32086 32001 ft 427 kts 300°
2026-05-06 03:39 -25.38772 127.26392 32001 ft 427 kts 300°
2026-05-06 03:39 -25.37696 127.24362 32001 ft 427 kts 300°
2026-05-06 03:40 -25.34807 127.18922 32001 ft 427 kts 300°
2026-05-06 03:40 -25.31789 127.13245 32001 ft 427 kts 300°
2026-05-06 03:41 -25.28752 127.07539 32001 ft 427 kts 300°
2026-05-06 03:41 -25.25730 127.01868 32001 ft 427 kts 300°
2026-05-06 03:42 -25.22699 126.96188 32001 ft 427 kts 300°
2026-05-06 03:42 -25.19663 126.90505 32001 ft 427 kts 300°
2026-05-06 03:43 -25.16638 126.84849 32001 ft 427 kts 300°
2026-05-06 03:43 -25.13602 126.79179 32001 ft 427 kts 300°
2026-05-06 03:44 -25.10577 126.73538 32001 ft 427 kts 300°
2026-05-06 03:44 -25.07527 126.67857 32001 ft 427 kts 300°
2026-05-06 03:45 -25.04502 126.62228 32001 ft 427 kts 300°
2026-05-06 03:45 -25.01447 126.56550 32001 ft 427 kts 300°
2026-05-06 03:46 -24.98408 126.50910 32001 ft 427 kts 300°
2026-05-06 03:46 -24.95347 126.45235 32001 ft 427 kts 300°
2026-05-06 03:47 -24.92314 126.39618 32001 ft 427 kts 300°
2026-05-06 03:47 -24.89251 126.33954 32001 ft 427 kts 301°
2026-05-06 03:48 -24.86210 126.28335 32001 ft 427 kts 301°
2026-05-06 03:48 -24.83153 126.22696 32001 ft 427 kts 301°
2026-05-06 03:49 -24.80094 126.17057 32001 ft 427 kts 301°
2026-05-06 03:49 -24.77025 126.11408 32001 ft 427 kts 301°
2026-05-06 03:50 -24.73961 126.05776 32001 ft 427 kts 301°
2026-05-06 03:50 -24.70897 126.00147 32001 ft 427 kts 301°
2026-05-06 03:51 -24.67825 125.94513 32001 ft 427 kts 301°
2026-05-06 03:51 -24.64759 125.88896 32001 ft 427 kts 301°
2026-05-06 03:52 -24.61685 125.83270 32001 ft 427 kts 301°
2026-05-06 03:52 -24.58614 125.77657 32001 ft 427 kts 301°
2026-05-06 03:53 -24.55535 125.72036 32001 ft 427 kts 301°
2026-05-06 03:53 -24.52453 125.66415 32001 ft 427 kts 301°
2026-05-06 03:54 -24.49391 125.60838 32001 ft 427 kts 301°
2026-05-06 03:54 -24.46292 125.55199 32001 ft 427 kts 301°
2026-05-06 03:55 -24.43227 125.49630 32001 ft 427 kts 301°
2026-05-06 03:55 -24.40120 125.43990 32001 ft 427 kts 301°
2026-05-06 03:56 -24.37054 125.38432 32001 ft 427 kts 301°
2026-05-06 03:56 -24.33966 125.32839 32001 ft 427 kts 301°
2026-05-06 03:57 -24.30863 125.27227 32001 ft 427 kts 301°
2026-05-06 03:57 -24.27760 125.21620 32001 ft 427 kts 301°
2026-05-06 03:58 -24.24667 125.16039 32001 ft 427 kts 301°
2026-05-06 03:58 -24.21561 125.10438 32001 ft 427 kts 301°
2026-05-06 03:59 -24.18451 125.04839 32001 ft 427 kts 301°
2026-05-06 03:59 -24.15368 124.99295 32001 ft 427 kts 301°
2026-05-06 04:00 -24.12265 124.93720 32001 ft 427 kts 301°
2026-05-06 04:00 -24.09156 124.88142 32001 ft 427 kts 301°
2026-05-06 04:01 -24.06038 124.82553 32001 ft 427 kts 301°
2026-05-06 04:01 -24.02936 124.76999 32001 ft 427 kts 301°
2026-05-06 04:02 -23.99829 124.71442 32001 ft 427 kts 301°
2026-05-06 04:02 -23.96708 124.65868 32001 ft 427 kts 301°
2026-05-06 04:03 -23.93598 124.60318 32001 ft 427 kts 301°
2026-05-06 04:03 -23.90477 124.54755 32001 ft 427 kts 301°
2026-05-06 04:04 -23.87343 124.49177 32001 ft 427 kts 301°
2026-05-06 04:04 -23.84223 124.43628 32001 ft 427 kts 301°
2026-05-06 04:05 -23.81112 124.38100 32001 ft 427 kts 301°
2026-05-06 04:05 -23.77981 124.32546 32001 ft 427 kts 301°
2026-05-06 04:06 -23.74859 124.27013 32001 ft 427 kts 301°
2026-05-06 04:06 -23.71720 124.21455 32001 ft 427 kts 301°
2026-05-06 04:07 -23.68580 124.15904 32001 ft 427 kts 301°
2026-05-06 04:07 -23.65461 124.10393 32001 ft 427 kts 301°
2026-05-06 04:08 -23.62313 124.04838 32001 ft 427 kts 301°
2026-05-06 04:08 -23.59171 123.99300 32001 ft 427 kts 301°
2026-05-06 04:09 -23.56043 123.93793 32001 ft 427 kts 301°
2026-05-06 04:09 -23.52905 123.88274 32001 ft 427 kts 301°
2026-05-06 04:10 -23.49755 123.82742 32001 ft 427 kts 301°
2026-05-06 04:10 -23.46610 123.77225 32001 ft 427 kts 301°
2026-05-06 04:11 -23.43467 123.71718 32001 ft 427 kts 301°
2026-05-06 04:11 -23.40306 123.66183 32001 ft 427 kts 301°
2026-05-06 04:12 -23.37163 123.60689 32001 ft 427 kts 301°
2026-05-06 04:12 -23.33994 123.55153 32001 ft 427 kts 301°
2026-05-06 04:13 -23.30833 123.49638 32001 ft 427 kts 301°
2026-05-06 04:13 -23.27677 123.44137 32001 ft 427 kts 301°
2026-05-06 04:14 -23.24531 123.38661 32001 ft 427 kts 301°
2026-05-06 04:14 -23.21363 123.33150 32001 ft 427 kts 302°
2026-05-06 04:15 -23.18193 123.27644 32001 ft 427 kts 302°
2026-05-06 04:15 -23.15025 123.22146 32001 ft 427 kts 302°
2026-05-06 04:16 -23.11862 123.16663 32001 ft 427 kts 302°
2026-05-06 04:16 -23.08699 123.11186 32001 ft 427 kts 302°
2026-05-06 04:17 -23.05530 123.05705 32001 ft 427 kts 302°
2026-05-06 04:17 -23.02356 123.00221 32001 ft 427 kts 302°
2026-05-06 04:18 -22.99168 122.94717 32001 ft 427 kts 302°
2026-05-06 04:18 -22.95983 122.89226 32001 ft 427 kts 302°
2026-05-06 04:19 -22.92812 122.83764 32001 ft 427 kts 302°
2026-05-06 04:19 -22.89634 122.78295 32001 ft 427 kts 302°
2026-05-06 04:20 -22.86449 122.72820 32001 ft 427 kts 302°
2026-05-06 04:20 -22.83252 122.67332 32001 ft 427 kts 302°
2026-05-06 04:21 -22.80063 122.61862 32001 ft 427 kts 302°
2026-05-06 04:21 -22.76880 122.56409 32001 ft 427 kts 302°
2026-05-06 04:22 -22.73703 122.50971 32001 ft 427 kts 302°
2026-05-06 04:23 -22.68912 122.42782 32001 ft 427 kts 302°
2026-05-06 04:23 -22.65708 122.37312 32001 ft 427 kts 302°
2026-05-06 04:24 -22.62505 122.31850 32001 ft 427 kts 302°
2026-05-06 04:24 -22.59303 122.26396 32001 ft 427 kts 302°
2026-05-06 04:25 -22.56110 122.20962 32001 ft 427 kts 302°
2026-05-06 04:25 -22.52912 122.15525 32001 ft 427 kts 302°
2026-05-06 04:26 -22.49708 122.10084 32001 ft 427 kts 302°
2026-05-06 04:26 -22.46503 122.04646 32001 ft 427 kts 302°
2026-05-06 04:27 -22.43293 121.99206 32001 ft 427 kts 302°
2026-05-06 04:27 -22.40084 121.93774 32001 ft 427 kts 302°
2026-05-06 04:28 -22.36858 121.88317 32001 ft 427 kts 302°
2026-05-06 04:28 -22.33636 121.82877 32001 ft 427 kts 302°
2026-05-06 04:29 -22.30418 121.77454 32001 ft 427 kts 302°
2026-05-06 04:29 -22.27217 121.72062 32001 ft 427 kts 302°
2026-05-06 04:30 -22.23990 121.66634 32001 ft 427 kts 302°